OBJECT B, 59806

Orbit data source: Space-Track

You're viewing an Uncataloged Satellite

Recently launched and/or uncataloged satellites may have evolving metadata. Metadata may include but not limited to: Owner, Maufacturer, Bus, Motor, and Mission.

OBJECT B, 59806 is a satellite owned by 21AT (CN) in SSO that was launched on Mon, 20 May 2024 UTC via a CHANG ZHENG 2D launch vehicle from the Taiyaun Space Center, China (TSC). Unknown objects in Earth's orbit typically refer to objects detected orbiting the Earth but have not yet been identified or cataloged. These objects could be anything from previously untracked satellites, spent rocket stages, debris from satellite collisions, or even natural meteoroids temporarily captured by Earth's gravity.

Loading next visibility...
Identifier
59806, 2024-094B
Orbit
SSO
Country
Flag of CNCN / PRC
Related business
Manufacturer
DFH
Mission
Operational Commercial Imaging
Bus & Motor
BJ3C, Unknown motor
Mass
~1,000 kg wet, ~1,000 kg dry
Launch date (UTC)
2024-05-20 (2 years ago)
Launch vehicle
CHANG ZHENG 2D
Launch site
Taiyaun Space Center, China (TSC)
Object type
Unknown
Shape & HBR
Hex Cyl + 3 Pan, 2.5 m
Radar Cross Section
2.703 m², Large (>1 m²)

Expand to show TLE details & history
Last TLE update: 23 hours ago

TLE from 23 hours ago
0 OBJECT B
1 59806U 24094B   26172.48894804  .00004996  00000-0  25769-3 0  9990
2 59806  97.3891 243.4021 0006757 112.7944 247.4003 15.16769249115812
Epoch: 2026-06-21T11:44Z
TLE epoch observation values (Epoch: 2026-06-21T11:44:05.110Z)
Latitude
-0.00012°
Longitude
157.69233°
Altitude
520.492 km
Speed
7.602 km/s
True Right ascension
16h 13m 36s
True Declination
0° 00' 00"
Sunlit
Object was in full shadow at epoch
Visualization orbit readout
Latitude
Unknown
Longitude
Unknown
Altitude
Unknown
Speed
Unknown
Apparent Right ascension
Unknown
Apparent Declination
Unknown
Sunlit
N/A
Visualization observer readout
Local Sidereal Time
21:32:51
Azimuth
Unknown
Elevation
Unknown
Doppler factor
Unknown
Orbital elements
Apogee altitude
517.238 km
Perigee altitude
507.926 km
Semi-major axis
6,890.719 km
Eccentricity
0.00068
Inclination
97.3891°
RAAN
243.4021°
Arg. of periapsis
112.7944°
True anomaly
247.32884°
Mean anomaly
247.4003°
Eccentric anomaly
247.36457°
Mean motion
3.79443 °/min
Orbital period
94.88 mins
BSTAR
0.00025769
Loading maneuver chart data...
Computing Atmospheric mass density...
Loading historical data...
Loading historical data...
Loading historical data...
Loading historical data...
Loading historical data...
Loading historical data...
Loading historical data...
Other satellites on launch #94 in the year 2024 (2024-05-20 UTC)

Documentation

Showing up to 5 results
|